| time (UTC) | temp C | wind direction | speed KPH | gust KPH | rain 1hr cm | rain 24hr cm | rain mn cm | humidity % | barometer mb |
| 20260505213013 | 25 | 264 | 0.0 | 14.5 | 0.00 | 0.00 | 0.00 | 46 | 1025.7 |
| 20260505211513 | 26 | 279 | 4.8 | 20.9 | 0.00 | 0.00 | 0.00 | 45 | 1025.7 |
| 20260505210012 | 26 | 24 | 3.2 | 11.3 | 0.00 | 0.00 | 0.00 | 45 | 1025.7 |
| 20260505204511 | 26 | 180 | 4.8 | 12.9 | 0.00 | 0.00 | 0.00 | 43 | 1025.7 |
| 20260505203017 | 27 | 295 | 4.8 | 14.5 | 0.00 | 0.00 | 0.00 | 42 | 1025.7 |
| 20260505201510 | 27 | 229 | 4.8 | 14.5 | 0.00 | 0.00 | 0.00 | 42 | 1025.7 |
| 20260505200108 | 27 | 174 | 1.6 | 12.9 | 0.00 | 0.00 | 0.00 | 41 | 1025.7 |
| 20260505194509 | 27 | 275 | 0.0 | 12.9 | 0.00 | 0.00 | 0.00 | 44 | 1025.7 |
| 20260505193010 | 27 | 254 | 4.8 | 14.5 | 0.00 | 0.00 | 0.00 | 44 | 1025.7 |
| 20260505191507 | 28 | 264 | 4.8 | 16.1 | 0.00 | 0.00 | 0.00 | 43 | 1025.7 |
| 20260505190004 | 28 | 251 | 3.2 | 16.1 | 0.00 | 0.00 | 0.00 | 44 | 1025.7 |
| 20260505184504 | 29 | 268 | 3.2 | 8.0 | 0.00 | 0.00 | 0.00 | 43 | 1025.7 |
| 20260505183002 | 29 | 137 | 4.8 | 17.7 | 0.00 | 0.00 | 0.00 | 41 | 1025.7 |
| 20260505181600 | 29 | 327 | 3.2 | 19.3 | 0.00 | 0.00 | 0.00 | 38 | 1025.7 |
| 20260505180109 | 29 | 69 | 6.4 | 16.1 | 0.00 | 0.00 | 0.00 | 40 | 1025.7 |
| 20260505174605 | 29 | 290 | 3.2 | 16.1 | 0.00 | 0.00 | 0.00 | 39 | 1025.7 |
| 20260505173057 | 29 | 271 | 3.2 | 12.9 | 0.00 | 0.00 | 0.00 | 40 | 1025.7 |
| 20260505171553 | 28 | 315 | 0.0 | 9.7 | 0.00 | 0.00 | 0.00 | 39 | 1025.7 |
| 20260505170053 | 28 | 267 | 3.2 | 12.9 | 0.00 | 0.00 | 0.00 | 39 | 1025.7 |
| 20260505164551 | 28 | 320 | 0.0 | 9.7 | 0.00 | 0.00 | 0.00 | 38 | 1025.7 |
| 20260505163049 | 27 | 350 | 0.0 | 14.5 | 0.00 | 0.00 | 0.00 | 41 | 1025.7 |
| 20260505161545 | 27 | 273 | 1.6 | 11.3 | 0.00 | 0.00 | 0.00 | 45 | 1025.7 |
| 20260505153034 | 25 | 31 | 0.0 | 9.7 | 0.00 | 0.00 | 0.00 | 49 | 1025.7 |
| 20260505151532 | 24 | 277 | 0.0 | 8.0 | 0.00 | 0.00 | 0.00 | 53 | 1025.7 |
| 20260505124504 | 18 | 253 | 0.0 | 6.4 | 0.00 | 0.00 | 0.00 | 67 | 1025.7 |
| 20260505123001 | 17 | 325 | 0.0 | 3.2 | 0.00 | 0.00 | 0.00 | 68 | 1025.7 |
| 20260505121558 | 17 | 251 | 0.0 | 11.3 | 0.00 | 0.00 | 0.00 | 70 | 1025.7 |
| 20260505120053 | 16 | 271 | 0.0 | 1.6 | 0.00 | 0.00 | 0.00 | 74 | 1025.7 |
| 20260505114549 | 15 | 236 | 0.0 | 0.0 | 0.00 | 0.00 | 0.00 | 75 | 1025.7 |
| 20260505113045 | 14 | 235 | 0.0 | 6.4 | 0.00 | 0.00 | 0.00 | 78 | 1025.7 |
| 20260505111543 | 13 | 246 | 0.0 | 9.7 | 0.00 | 0.00 | 0.00 | 79 | 1025.7 |
| 20260505101537 | 11 | 195 | 0.0 | 0.0 | 0.00 | 0.00 | 0.00 | 82 | 1025.7 |
| 20260505100035 | 11 | 194 | 0.0 | 0.0 | 0.00 | 0.00 | 0.00 | 83 | 1025.7 |
| 20260505094533 | 10 | 187 | 0.0 | 0.0 | 0.00 | 0.00 | 0.00 | 83 | 1025.7 |
| 20260505093037 | 10 | 187 | 0.0 | 0.0 | 0.00 | 0.00 | 0.00 | 82 | 1025.7 |
| 20260505091531 | 10 | 187 | 0.0 | 0.0 | 0.00 | 0.00 | 0.00 | 82 | 1025.7 |
| 20260505090030 | 10 | 187 | 0.0 | 0.0 | 0.00 | 0.00 | 0.00 | 82 | 1025.7 |
| 20260505084529 | 10 | 187 | 0.0 | 0.0 | 0.00 | 0.00 | 0.00 | 81 | 1025.7 |
| 20260505083027 | 11 | 187 | 0.0 | 0.0 | 0.00 | 0.00 | 0.00 | 79 | 1025.7 |
| 20260505081523 | 11 | 187 | 0.0 | 0.0 | 0.00 | 0.00 | 0.00 | 79 | 1025.7 |
| 20260505080022 | 11 | 187 | 0.0 | 0.0 | 0.00 | 0.00 | 0.00 | 78 | 1025.7 |
| 20260505074521 | 11 | 187 | 0.0 | 0.0 | 0.00 | 0.00 | 0.00 | 78 | 1025.7 |
| 20260505073019 | 11 | 187 | 0.0 | 0.0 | 0.00 | 0.00 | 0.00 | 77 | 1025.7 |
| 20260505071517 | 11 | 187 | 0.0 | 0.0 | 0.00 | 0.00 | 0.00 | 76 | 1025.7 |
| 20260505070016 | 12 | 187 | 0.0 | 0.0 | 0.00 | 0.00 | 0.00 | 75 | 1025.7 |
| 20260505064513 | 12 | 187 | 0.0 | 0.0 | 0.00 | 0.00 | 0.00 | 74 | 1025.7 |
| 20260505063015 | 12 | 187 | 0.0 | 0.0 | 0.00 | 0.00 | 0.00 | 74 | 1025.7 |
| 20260505061511 | 12 | 187 | 0.0 | 0.0 | 0.00 | 0.00 | 0.00 | 73 | 1025.7 |
| 20260505060010 | 12 | 187 | 0.0 | 0.0 | 0.00 | 0.00 | 0.00 | 71 | 1025.7 |
| 20260505054507 | 12 | 187 | 0.0 | 8.0 | 0.00 | 0.00 | 0.00 | 71 | 1025.7 |
| 20260505053004 | 13 | 185 | 0.0 | 0.0 | 0.00 | 0.00 | 0.00 | 70 | 1025.7 |
| 20260505051510 | 13 | 185 | 0.0 | 6.4 | 0.00 | 0.00 | 0.00 | 69 | 1025.7 |
| 20260505041559 | 13 | 27 | 0.0 | 6.4 | 0.00 | 0.00 | 0.00 | 65 | 1025.7 |
| 20260505040054 | 13 | 160 | 0.0 | 8.0 | 0.00 | 0.00 | 0.00 | 64 | 1025.7 |
| 20260505034553 | 14 | 230 | 0.0 | 3.2 | 0.00 | 0.00 | 0.00 | 63 | 1025.7 |
| 20260505033053 | 14 | 169 | 0.0 | 6.4 | 0.00 | 0.00 | 0.00 | 62 | 1025.7 |
| 20260505031557 | 14 | 59 | 0.0 | 1.6 | 0.00 | 0.00 | 0.00 | 61 | 1025.7 |
| 20260505030052 | 14 | 19 | 0.0 | 0.0 | 0.00 | 0.00 | 0.00 | 60 | 1025.7 |
| 20260505024554 | 15 | 19 | 0.0 | 0.0 | 0.00 | 0.00 | 0.00 | 59 | 1025.7 |
| 20260505023051 | 15 | 21 | 0.0 | 0.0 | 0.00 | 0.00 | 0.00 | 57 | 1025.7 |
| 20260505021552 | 16 | 19 | 0.0 | 11.3 | 0.00 | 0.00 | 0.00 | 56 | 1025.7 |
| 20260505020059 | 16 | 64 | 0.0 | 0.0 | 0.00 | 0.00 | 0.00 | 55 | 1025.7 |
| 20260505014552 | 16 | 289 | 1.6 | 8.0 | 0.00 | 0.00 | 0.00 | 55 | 1025.7 |
| 20260505013049 | 16 | 135 | 0.0 | 9.7 | 0.00 | 0.00 | 0.00 | 54 | 1025.7 |
| 20260505011551 | 16 | 290 | 0.0 | 14.5 | 0.00 | 0.00 | 0.00 | 54 | 1025.7 |
| 20260505010107 | 17 | 52 | 0.0 | 8.0 | 0.00 | 0.00 | 0.00 | 52 | 1025.7 |
| 20260505004548 | 17 | 258 | 0.0 | 1.6 | 0.00 | 0.00 | 0.00 | 51 | 1025.7 |
| 20260505003054 | 17 | 263 | 0.0 | 9.7 | 0.00 | 0.00 | 0.00 | 50 | 1025.7 |
| 20260505001547 | 18 | 267 | 0.0 | 16.1 | 0.00 | 0.00 | 0.00 | 49 | 1025.7 |
| 20260505000048 | 18 | 314 | 0.0 | 3.2 | 0.00 | 0.00 | 0.00 | 46 | 1025.7 |
| 20260504234546 | 19 | 329 | 0.0 | 6.4 | 0.00 | 0.00 | 0.00 | 44 | 1025.7 |
| 20260504233102 | 20 | 210 | 0.0 | 8.0 | 0.00 | 0.00 | 0.00 | 41 | 1025.7 |
| 20260504231547 | 20 | 265 | 0.0 | 8.0 | 0.00 | 0.00 | 0.00 | 37 | 1025.7 |
| 20260504230053 | 21 | 29 | 0.0 | 0.0 | 0.00 | 0.00 | 0.00 | 37 | 1025.7 |
| 20260504224543 | 21 | 32 | 0.0 | 8.0 | 0.00 | 0.00 | 0.00 | 37 | 1025.7 |
| 20260504223044 | 21 | 320 | 0.0 | 6.4 | 0.00 | 0.00 | 0.00 | 35 | 1025.7 |
| 20260504221542 | 22 | 321 | 0.0 | 9.7 | 0.00 | 0.00 | 0.00 | 35 | 1025.7 |
| 20260504220043 | 22 | 134 | 1.6 | 11.3 | 0.00 | 0.00 | 0.00 | 34 | 1025.7 |
| 20260504214543 | 22 | 273 | 0.0 | 11.3 | 0.00 | 0.00 | 0.00 | 35 | 1025.7 |